This is the latest recevied weather packets stored in our database for station/object KC1TEM-13. If no packets are shown the sender has not sent any weather packets the latest 10 day(s).
| Time | Temp. | Humidity | Pressure | Rain* | Wind** | Luminosity | Snow |
|---|---|---|---|---|---|---|---|
| 1777379270 | 10.56° C | 70% | 1024.2 hPa | 0 mm | - | 241 W/m² | - |
| 1777378965 | 10.56° C | 67% | 1024.4 hPa | 0 mm | - | 184 W/m² | - |
| 1777378661 | 10.56° C | 70% | 1024.1 hPa | 0 mm | - | 206 W/m² | - |
| 1777378358 | 10.56° C | 68% | 1024.4 hPa | 0 mm | - | 219 W/m² | - |
| 1777378058 | 10.56° C | 72% | 1024.1 hPa | 0 mm | - | 218 W/m² | - |
| 1777377752 | 10° C | 73% | 1024.1 hPa | 0 mm | - | 183 W/m² | - |
| 1777377447 | 10° C | 75% | 1024.3 hPa | 0 mm | - | 180 W/m² | - |
| 1777377143 | 8.89° C | 77% | 1024.2 hPa | 0 mm | - | 164 W/m² | - |
| 1777376840 | 8.89° C | 79% | 1024.5 hPa | 0 mm | - | 152 W/m² | - |
| 1777376537 | 8.33° C | 81% | 1024.4 hPa | 0 mm | - | 122 W/m² | - |
| 1777376233 | 7.78° C | 84% | 1024.5 hPa | 0 mm | - | 114 W/m² | - |
| 1777375928 | 7.22° C | 89% | 1024.5 hPa | 0 mm | - | 125 W/m² | - |
| 1777375622 | 6.67° C | 92% | 1024.6 hPa | 0 mm | - | 79 W/m² | - |
| 1777375317 | 6.11° C | 93% | 1024.5 hPa | 0 mm | - | 63 W/m² | - |
| 1777375015 | 5.56° C | 95% | 1024.6 hPa | 0 mm | - | 53 W/m² | - |
| 1777374710 | 5.56° C | 96% | 1024.5 hPa | 0 mm | - | 60 W/m² | - |
| 1777374406 | 5° C | 96% | 1024.7 hPa | 0 mm | - | 45 W/m² | - |
| 1777374104 | 4.44° C | 96% | 1024.8 hPa | 0 mm | - | 38 W/m² | - |
| 1777373799 | 3.89° C | 96% | 1024.6 hPa | 0 mm | - | 34 W/m² | - |
| 1777373498 | 3.89° C | 96% | 1024.3 hPa | 0 mm | - | 30 W/m² | - |
| 1777373198 | 3.33° C | 95% | 1024.4 hPa | 0 mm | - | 27 W/m² | - |
| 1777372894 | 2.78° C | 94% | 1024.3 hPa | 0 mm | - | 25 W/m² | - |
| 1777372589 | 2.78° C | 94% | 1024.2 hPa | 0 mm | - | 23 W/m² | - |
| 1777372288 | 2.78° C | 94% | 1024.1 hPa | 0 mm | - | 21 W/m² | - |
| 1777371987 | 2.78° C | 94% | 1024.2 hPa | 0 mm | - | 19 W/m² | - |
* Rain latest hour (hover to see other rain measurements)
** Current wind speed in m/s (hover to see current wind gust speed)